Location: Caltech
(34.1382°N, 118.1253°W)
Time: 02:56:02
(UTC-08:00)

Cosmos 1833 Rocket - Visible Passes

Search period start: 13 February 2016 00:00
Search period end: 23 February 2016 00:00
Orbit: 832 x 841 km, 71.0° (Epoch: 12 February)

Date Brightness Start Highest point End Pass type
(mag) Time Alt. Az. Time Alt. Az. Time Alt. Az.
18 Feb 4.8 06:02:57 10° N 06:07:41 27° ENE 06:12:24 10° ESE visible
19 Feb 4.9 05:46:24 10° N 05:50:59 25° ENE 05:55:32 10° ESE visible
20 Feb 5.0 05:29:52 10° N 05:34:17 23° ENE 05:38:39 10° ESE visible
21 Feb 5.1 05:13:21 10° N 05:17:34 21° ENE 05:21:45 10° ESE visible
21 Feb 4.2 19:58:27 10° SSW 20:00:34 24° SSW 20:00:34 24° SSW visible
22 Feb 5.2 04:56:51 10° NNE 05:00:51 19° ENE 05:04:49 10° ESE visible
22 Feb 2.8 19:41:49 10° S 19:46:26 58° SSE 19:46:26 58° SSE visible
